| time (UTC) | temp F | wind direction | speed MPH | gust MPH | rain 1hr in | rain 24hr in | rain mn in | humidity % | barometer mb |
| 20260504044006 | 60 | 10 | 1.0 | 4.0 | 0.00 | 0.00 | 0.00 | 56 | 1012.0 |
| 20260504043524 | 60 | 300 | 1.0 | 4.0 | 0.00 | 0.00 | 0.00 | 55 | 1012.5 |
| 20260504043108 | 60 | 225 | 0.0 | 5.0 | 0.00 | 0.00 | 0.00 | 55 | 1012.7 |
| 20260504042502 | 60 | 240 | 1.0 | 5.0 | 0.00 | 0.00 | 0.00 | 55 | 1012.6 |
| 20260504042019 | 60 | 232 | 2.0 | 5.0 | 0.00 | 0.00 | 0.00 | 54 | 1012.5 |
| 20260504041537 | 60 | 252 | 2.0 | 7.0 | 0.00 | 0.00 | 0.00 | 54 | 1012.5 |
| 20260504041048 | 60 | 209 | 1.0 | 8.0 | 0.00 | 0.00 | 0.00 | 54 | 1012.5 |
| 20260504040503 | 60 | 240 | 4.0 | 6.0 | 0.00 | 0.00 | 0.00 | 53 | 1012.5 |
| 20260504040023 | 60 | 261 | 4.0 | 9.0 | 0.00 | 0.00 | 0.00 | 53 | 1012.2 |
| 20260504035538 | 60 | 255 | 5.0 | 9.0 | 0.00 | 0.00 | 0.00 | 53 | 1012.3 |
| 20260504035056 | 60 | 235 | 3.0 | 7.0 | 0.00 | 0.00 | 0.00 | 54 | 1012.5 |
| 20260504034511 | 60 | 227 | 2.0 | 9.0 | 0.00 | 0.00 | 0.00 | 54 | 1012.3 |
| 20260504034039 | 60 | 236 | 3.0 | 8.0 | 0.00 | 0.00 | 0.00 | 54 | 1012.3 |
| 20260504033559 | 60 | 193 | 0.0 | 7.0 | 0.00 | 0.00 | 0.00 | 54 | 1012.3 |
| 20260504033025 | 60 | 305 | 3.0 | 7.0 | 0.00 | 0.00 | 0.00 | 54 | 1012.3 |
| 20260504032545 | 60 | 268 | 2.0 | 7.0 | 0.00 | 0.00 | 0.00 | 54 | 1012.3 |
| 20260504032054 | 60 | 269 | 3.0 | 6.0 | 0.00 | 0.00 | 0.00 | 53 | 1012.2 |
| 20260504031513 | 60 | 261 | 0.0 | 5.0 | 0.00 | 0.00 | 0.00 | 53 | 1012.2 |
| 20260504031044 | 60 | 245 | 3.0 | 6.0 | 0.00 | 0.00 | 0.00 | 53 | 1012.2 |
| 20260504030601 | 60 | 229 | 2.0 | 9.0 | 0.00 | 0.00 | 0.00 | 53 | 1012.1 |
| 20260504030034 | 60 | 232 | 4.0 | 9.0 | 0.00 | 0.00 | 0.00 | 53 | 1012.0 |
| 20260504025545 | 60 | 270 | 1.0 | 8.0 | 0.00 | 0.00 | 0.00 | 52 | 1012.0 |
| 20260504025014 | 60 | 273 | 4.0 | 8.0 | 0.00 | 0.00 | 0.00 | 52 | 1012.1 |
| 20260504024535 | 60 | 206 | 4.0 | 8.0 | 0.00 | 0.00 | 0.00 | 52 | 1012.1 |
| 20260504024059 | 60 | 258 | 4.0 | 8.0 | 0.00 | 0.00 | 0.00 | 52 | 1012.1 |
| 20260504023521 | 60 | 242 | 4.0 | 9.0 | 0.00 | 0.00 | 0.00 | 52 | 1012.1 |
| 20260504023042 | 60 | 272 | 5.0 | 10.0 | 0.00 | 0.00 | 0.00 | 51 | 1012.0 |
| 20260504022508 | 60 | 239 | 4.0 | 10.0 | 0.00 | 0.00 | 0.00 | 51 | 1011.9 |
| 20260504022024 | 60 | 248 | 5.0 | 10.0 | 0.00 | 0.00 | 0.00 | 51 | 1011.8 |
| 20260504021547 | 60 | 238 | 4.0 | 8.0 | 0.00 | 0.00 | 0.00 | 51 | 1011.8 |
| 20260504021040 | 60 | 272 | 4.0 | 8.0 | 0.00 | 0.00 | 0.00 | 51 | 1011.7 |
| 20260504020600 | 61 | 254 | 3.0 | 8.0 | 0.00 | 0.00 | 0.00 | 50 | 1011.7 |
| 20260504020022 | 61 | 209 | 2.0 | 8.0 | 0.00 | 0.00 | 0.00 | 50 | 1011.6 |
| 20260504015536 | 61 | 253 | 4.0 | 8.0 | 0.00 | 0.00 | 0.00 | 50 | 1011.7 |
| 20260504015055 | 61 | 177 | 2.0 | 10.0 | 0.00 | 0.00 | 0.00 | 50 | 1011.6 |
| 20260504014522 | 61 | 286 | 4.0 | 10.0 | 0.00 | 0.00 | 0.00 | 49 | 1011.5 |
| 20260504014039 | 62 | 242 | 3.0 | 9.0 | 0.00 | 0.00 | 0.00 | 49 | 1011.5 |
| 20260504013558 | 62 | 265 | 3.0 | 9.0 | 0.00 | 0.00 | 0.00 | 49 | 1011.5 |
| 20260504013019 | 62 | 242 | 4.0 | 11.0 | 0.00 | 0.00 | 0.00 | 48 | 1011.5 |
| 20260504012535 | 62 | 256 | 6.0 | 9.0 | 0.00 | 0.00 | 0.00 | 48 | 1011.4 |
| 20260504012052 | 62 | 244 | 4.0 | 9.0 | 0.00 | 0.00 | 0.00 | 48 | 1011.4 |
| 20260504011520 | 62 | 230 | 4.0 | 9.0 | 0.00 | 0.00 | 0.00 | 48 | 1011.4 |
| 20260504011042 | 62 | 241 | 3.0 | 10.0 | 0.00 | 0.00 | 0.00 | 48 | 1011.3 |
| 20260504010557 | 62 | 231 | 5.0 | 10.0 | 0.00 | 0.00 | 0.00 | 48 | 1011.4 |
| 20260504010012 | 62 | 254 | 4.0 | 11.0 | 0.00 | 0.00 | 0.00 | 48 | 1011.3 |
| 20260504005532 | 62 | 212 | 5.0 | 11.0 | 0.00 | 0.00 | 0.00 | 48 | 1011.2 |
| 20260504005050 | 62 | 231 | 5.0 | 10.0 | 0.00 | 0.00 | 0.00 | 48 | 1011.3 |
| 20260504004513 | 62 | 244 | 3.0 | 10.0 | 0.00 | 0.00 | 0.00 | 49 | 1011.3 |
| 20260504004025 | 62 | 218 | 4.0 | 10.0 | 0.00 | 0.00 | 0.00 | 49 | 1011.3 |
| 20260504003542 | 61 | 227 | 4.0 | 10.0 | 0.00 | 0.00 | 0.00 | 49 | 1011.2 |
| 20260504003112 | 61 | 238 | 2.0 | 7.0 | 0.00 | 0.00 | 0.00 | 49 | 1011.2 |
| 20260504002525 | 61 | 242 | 2.0 | 7.0 | 0.00 | 0.00 | 0.00 | 49 | 1011.2 |
| 20260504002044 | 61 | 225 | 3.0 | 7.0 | 0.00 | 0.00 | 0.00 | 49 | 1011.2 |
| 20260504001526 | 61 | 233 | 2.0 | 8.0 | 0.00 | 0.00 | 0.00 | 49 | 1011.3 |
| 20260504001030 | 62 | 206 | 3.0 | 8.0 | 0.00 | 0.00 | 0.00 | 48 | 1011.4 |
| 20260504000549 | 62 | 221 | 4.0 | 15.0 | 0.00 | 0.00 | 0.00 | 48 | 1011.5 |
| 20260504000006 | 62 | 242 | 6.0 | 15.0 | 0.00 | 0.00 | 0.00 | 48 | 1011.5 |
| 20260503235531 | 62 | 206 | 2.0 | 11.0 | 0.00 | 0.00 | 0.00 | 48 | 1011.4 |
| 20260503235050 | 62 | 229 | 4.0 | 11.0 | 0.00 | 0.00 | 0.00 | 47 | 1011.4 |
| 20260503234519 | 62 | 252 | 1.0 | 9.0 | 0.00 | 0.00 | 0.00 | 47 | 1011.4 |
| 20260503234038 | 63 | 279 | 5.0 | 9.0 | 0.00 | 0.00 | 0.00 | 46 | 1011.4 |
| 20260503233555 | 63 | 219 | 2.0 | 5.0 | 0.00 | 0.00 | 0.00 | 46 | 1011.1 |
| 20260503233008 | 63 | 217 | 0.0 | 5.0 | 0.00 | 0.00 | 0.00 | 46 | 1011.1 |
| 20260503232539 | 63 | 228 | 1.0 | 4.0 | 0.00 | 0.00 | 0.00 | 45 | 1011.1 |
| 20260503232059 | 63 | 212 | 0.0 | 4.0 | 0.00 | 0.00 | 0.00 | 45 | 1011.1 |
| 20260503231525 | 64 | 225 | 1.0 | 6.0 | 0.00 | 0.00 | 0.00 | 45 | 1011.0 |
| 20260503231044 | 64 | 175 | 2.0 | 7.0 | 0.00 | 0.00 | 0.00 | 44 | 1011.1 |
| 20260503230602 | 64 | 178 | 2.0 | 5.0 | 0.00 | 0.00 | 0.00 | 44 | 1011.1 |
| 20260503230017 | 64 | 267 | 2.0 | 6.0 | 0.00 | 0.00 | 0.00 | 44 | 1011.1 |
| 20260503225529 | 64 | 203 | 2.0 | 7.0 | 0.00 | 0.00 | 0.00 | 44 | 1011.0 |
| 20260503225057 | 65 | 198 | 3.0 | 7.0 | 0.00 | 0.00 | 0.00 | 43 | 1011.1 |
| 20260503224513 | 65 | 212 | 1.0 | 7.0 | 0.00 | 0.00 | 0.00 | 43 | 1011.1 |
| 20260503224029 | 65 | 181 | 2.0 | 7.0 | 0.00 | 0.00 | 0.00 | 43 | 1011.1 |
| 20260503223548 | 65 | 226 | 3.0 | 7.0 | 0.00 | 0.00 | 0.00 | 42 | 1011.1 |
| 20260503223008 | 65 | 179 | 3.0 | 9.0 | 0.00 | 0.00 | 0.00 | 42 | 1011.1 |
| 20260503222522 | 65 | 189 | 4.0 | 10.0 | 0.00 | 0.00 | 0.00 | 42 | 1011.1 |
| 20260503222041 | 66 | 203 | 3.0 | 10.0 | 0.00 | 0.00 | 0.00 | 41 | 1011.1 |
| 20260503221601 | 66 | 210 | 2.0 | 7.0 | 0.00 | 0.00 | 0.00 | 41 | 1011.2 |
| 20260503221028 | 66 | 221 | 3.0 | 8.0 | 0.00 | 0.00 | 0.00 | 41 | 1011.2 |
| 20260503220545 | 66 | 196 | 3.0 | 8.0 | 0.00 | 0.00 | 0.00 | 41 | 1011.3 |
| 20260503220003 | 66 | 165 | 2.0 | 8.0 | 0.00 | 0.00 | 0.00 | 40 | 1011.3 |
| 20260503215527 | 66 | 206 | 1.0 | 10.0 | 0.00 | 0.00 | 0.00 | 40 | 1011.3 |
| 20260503215044 | 67 | 190 | 4.0 | 10.0 | 0.00 | 0.00 | 0.00 | 40 | 1011.3 |
| 20260503214602 | 67 | 225 | 2.0 | 8.0 | 0.00 | 0.00 | 0.00 | 39 | 1011.2 |
| 20260503214015 | 67 | 188 | 3.0 | 8.0 | 0.00 | 0.00 | 0.00 | 38 | 1011.3 |
| 20260503213535 | 68 | 204 | 1.0 | 8.0 | 0.00 | 0.00 | 0.00 | 38 | 1011.3 |
| 20260503213055 | 68 | 159 | 3.0 | 10.0 | 0.00 | 0.00 | 0.00 | 38 | 1011.3 |
| 20260503212511 | 68 | 92 | 1.0 | 12.0 | 0.00 | 0.00 | 0.00 | 37 | 1011.3 |
| 20260503212041 | 68 | 188 | 3.0 | 9.0 | 0.00 | 0.00 | 0.00 | 37 | 1011.3 |
| 20260503211602 | 68 | 205 | 4.0 | 9.0 | 0.00 | 0.00 | 0.00 | 37 | 1011.3 |
| 20260503211026 | 69 | 159 | 2.0 | 9.0 | 0.00 | 0.00 | 0.00 | 36 | 1011.3 |
| 20260503210543 | 69 | 171 | 2.0 | 9.0 | 0.00 | 0.00 | 0.00 | 36 | 1011.4 |
| 20260503205527 | 69 | 118 | 4.0 | 9.0 | 0.00 | 0.00 | 0.00 | 36 | 1011.3 |
| 20260503205048 | 69 | 186 | 2.0 | 7.0 | 0.00 | 0.00 | 0.00 | 36 | 1011.4 |
| 20260503204522 | 69 | 360 | 3.0 | 10.0 | 0.00 | 0.00 | 0.00 | 35 | 1011.5 |
| 20260503204031 | 69 | 157 | 5.0 | 10.0 | 0.00 | 0.00 | 0.00 | 35 | 1011.4 |
| 20260503203552 | 69 | 191 | 3.0 | 11.0 | 0.00 | 0.00 | 0.00 | 35 | 1011.5 |
| 20260503203011 | 69 | 186 | 3.0 | 9.0 | 0.00 | 0.00 | 0.00 | 35 | 1011.4 |
| 20260503202534 | 69 | 215 | 3.0 | 8.0 | 0.00 | 0.00 | 0.00 | 35 | 1011.5 |
| 20260503202054 | 69 | 143 | 3.0 | 7.0 | 0.00 | 0.00 | 0.00 | 35 | 1011.5 |
| 20260503201516 | 69 | 212 | 3.0 | 10.0 | 0.00 | 0.00 | 0.00 | 35 | 1011.5 |
| 20260503201036 | 69 | 198 | 3.0 | 9.0 | 0.00 | 0.00 | 0.00 | 35 | 1011.6 |
| 20260503200553 | 69 | 185 | 2.0 | 6.0 | 0.00 | 0.00 | 0.00 | 35 | 1011.7 |
| 20260503200002 | 69 | 184 | 3.0 | 5.0 | 0.00 | 0.00 | 0.00 | 35 | 1011.7 |
| 20260503195521 | 69 | 188 | 2.0 | 7.0 | 0.00 | 0.00 | 0.00 | 34 | 1011.7 |
| 20260503195038 | 68 | 216 | 3.0 | 7.0 | 0.00 | 0.00 | 0.00 | 34 | 1011.8 |
| 20260503194601 | 68 | 167 | 1.0 | 5.0 | 0.00 | 0.00 | 0.00 | 34 | 1011.8 |
| 20260503194005 | 68 | 182 | 2.0 | 5.0 | 0.00 | 0.00 | 0.00 | 34 | 1011.7 |
| 20260503193536 | 68 | 163 | 1.0 | 5.0 | 0.00 | 0.00 | 0.00 | 34 | 1011.7 |
| 20260503193055 | 68 | 189 | 1.0 | 4.0 | 0.00 | 0.00 | 0.00 | 34 | 1011.7 |
| 20260503192520 | 68 | 199 | 2.0 | 6.0 | 0.00 | 0.00 | 0.00 | 34 | 1011.7 |
| 20260503192040 | 68 | 194 | 3.0 | 6.0 | 0.00 | 0.00 | 0.00 | 34 | 1011.7 |
| 20260503191506 | 68 | 207 | 0.0 | 4.0 | 0.00 | 0.00 | 0.00 | 34 | 1011.7 |
| 20260503191023 | 69 | 179 | 1.0 | 4.0 | 0.00 | 0.00 | 0.00 | 34 | 1011.8 |
| 20260503190554 | 69 | 191 | 0.0 | 3.0 | 0.00 | 0.00 | 0.00 | 34 | 1011.8 |
| 20260503190015 | 69 | 180 | 1.0 | 4.0 | 0.00 | 0.00 | 0.00 | 34 | 1011.7 |
| 20260503185538 | 69 | 192 | 0.0 | 4.0 | 0.00 | 0.00 | 0.00 | 34 | 1011.8 |
| 20260503185059 | 69 | 210 | 0.0 | 3.0 | 0.00 | 0.00 | 0.00 | 34 | 1011.8 |
| 20260503184513 | 69 | 202 | 0.0 | 3.0 | 0.00 | 0.00 | 0.00 | 34 | 1011.8 |
| 20260503184031 | 70 | 181 | 0.0 | 2.0 | 0.00 | 0.00 | 0.00 | 34 | 1011.7 |
| 20260503183551 | 70 | 183 | 0.0 | 3.0 | 0.00 | 0.00 | 0.00 | 33 | 1011.7 |
| 20260503183007 | 71 | 219 | 0.0 | 3.0 | 0.00 | 0.00 | 0.00 | 33 | 1011.6 |
| 20260503182538 | 71 | 217 | 0.0 | 0.0 | 0.00 | 0.00 | 0.00 | 33 | 1011.6 |
| 20260503182057 | 71 | 217 | 0.0 | 0.0 | 0.00 | 0.00 | 0.00 | 32 | 1011.5 |
| 20260503181541 | 72 | 217 | 0.0 | 0.0 | 0.00 | 0.00 | 0.00 | 32 | 1011.5 |
| 20260503181042 | 72 | 217 | 0.0 | 0.0 | 0.00 | 0.00 | 0.00 | 31 | 1011.5 |
| 20260503180559 | 73 | 217 | 0.0 | 0.0 | 0.00 | 0.00 | 0.00 | 31 | 1011.5 |
| 20260503180038 | 73 | 217 | 0.0 | 0.0 | 0.00 | 0.00 | 0.00 | 30 | 1011.4 |
| 20260503175541 | 74 | 217 | 0.0 | 3.0 | 0.00 | 0.00 | 0.00 | 29 | 1011.4 |
| 20260503175048 | 74 | 217 | 0.0 | 3.0 | 0.00 | 0.00 | 0.00 | 29 | 1011.4 |
| 20260503174505 | 74 | 210 | 0.0 | 3.0 | 0.00 | 0.00 | 0.00 | 28 | 1011.4 |
| 20260503174034 | 75 | 198 | 0.0 | 4.0 | 0.00 | 0.00 | 0.00 | 28 | 1011.4 |
| 20260503173554 | 75 | 203 | 0.0 | 4.0 | 0.00 | 0.00 | 0.00 | 28 | 1011.5 |
| 20260503173019 | 75 | 200 | 1.0 | 4.0 | 0.00 | 0.00 | 0.00 | 28 | 1011.5 |
| 20260503172539 | 76 | 194 | 0.0 | 8.0 | 0.00 | 0.00 | 0.00 | 27 | 1011.5 |
| 20260503172057 | 76 | 209 | 1.0 | 4.0 | 0.00 | 0.00 | 0.00 | 27 | 1011.5 |
| 20260503171522 | 76 | 204 | 1.0 | 5.0 | 0.00 | 0.00 | 0.00 | 26 | 1011.5 |
| 20260503171042 | 76 | 197 | 2.0 | 5.0 | 0.00 | 0.00 | 0.00 | 26 | 1011.5 |
| 20260503170602 | 77 | 188 | 2.0 | 6.0 | 0.00 | 0.00 | 0.00 | 26 | 1011.5 |
| 20260503151009 | 82 | 258 | 3.0 | 9.0 | 0.00 | 0.00 | 0.00 | 23 | 1011.8 |
| 20260503150529 | 82 | 210 | 2.0 | 11.0 | 0.00 | 0.00 | 0.00 | 23 | 1012.0 |
| 20260503131049 | 83 | 225 | 5.0 | 12.0 | 0.00 | 0.00 | 0.00 | 22 | 1013.0 |
| 20260503130503 | 83 | 243 | 4.0 | 12.0 | 0.00 | 0.00 | 0.00 | 22 | 1013.0 |
| 20260503110500 | 81 | 194 | 5.0 | 10.0 | 0.00 | 0.00 | 0.00 | 24 | 1014.1 |
| 20260503090512 | 78 | 188 | 4.0 | 12.0 | 0.00 | 0.00 | 0.00 | 27 | 1015.1 |
| 20260503081542 | 76 | 238 | 4.0 | 8.0 | 0.00 | 0.00 | 0.00 | 28 | 1015.2 |
| 20260503081100 | 76 | 201 | 3.0 | 10.0 | 0.00 | 0.00 | 0.00 | 29 | 1015.3 |
| 20260503080516 | 75 | 216 | 4.0 | 13.0 | 0.00 | 0.00 | 0.00 | 29 | 1015.2 |
| 20260503072505 | 72 | 240 | 8.0 | 16.0 | 0.00 | 0.00 | 0.00 | 32 | 1015.1 |
| 20260503072035 | 72 | 153 | 5.0 | 12.0 | 0.00 | 0.00 | 0.00 | 34 | 1015.1 |
| 20260503071554 | 71 | 244 | 6.0 | 12.0 | 0.00 | 0.00 | 0.00 | 34 | 1015.1 |
| 20260503071021 | 71 | 177 | 5.0 | 14.0 | 0.00 | 0.00 | 0.00 | 35 | 1015.1 |
| 20260503070540 | 70 | 269 | 5.0 | 12.0 | 0.00 | 0.00 | 0.00 | 35 | 1015.2 |
| 20260503055100 | 63 | 178 | 4.0 | 12.0 | 0.00 | 0.00 | 0.00 | 42 | 1015.3 |
| 20260503054524 | 63 | 219 | 5.0 | 16.0 | 0.00 | 0.00 | 0.00 | 42 | 1015.4 |
| 20260503054045 | 63 | 212 | 5.0 | 16.0 | 0.00 | 0.00 | 0.00 | 41 | 1015.3 |
| 20260503053503 | 62 | 222 | 5.0 | 11.0 | 0.00 | 0.00 | 0.00 | 42 | 1015.3 |
| 20260503053031 | 62 | 241 | 6.0 | 14.0 | 0.00 | 0.00 | 0.00 | 41 | 1015.4 |
| 20260503052549 | 62 | 170 | 5.0 | 14.0 | 0.00 | 0.00 | 0.00 | 42 | 1015.4 |
| 20260503052015 | 62 | 223 | 5.0 | 12.0 | 0.00 | 0.00 | 0.00 | 43 | 1015.3 |
| 20260503051535 | 62 | 181 | 4.0 | 14.0 | 0.00 | 0.00 | 0.00 | 43 | 1015.3 |
| 20260503051052 | 61 | 258 | 5.0 | 14.0 | 0.00 | 0.00 | 0.00 | 43 | 1015.3 |
| 20260503050509 | 61 | 217 | 4.0 | 12.0 | 0.00 | 0.00 | 0.00 | 43 | 1015.3 |
| 20260503050037 | 61 | 186 | 6.0 | 12.0 | 0.00 | 0.00 | 0.00 | 43 | 1015.3 |
| 20260503045556 | 61 | 198 | 5.0 | 11.0 | 0.00 | 0.00 | 0.00 | 43 | 1015.3 |
| 20260503045022 | 60 | 204 | 6.0 | 10.0 | 0.00 | 0.00 | 0.00 | 43 | 1015.3 |
| 20260503044558 | 60 | 161 | 5.0 | 10.0 | 0.00 | 0.00 | 0.00 | 43 | 1015.3 |